| time (UTC) | temp C | wind direction | speed KPH | gust KPH | rain 1hr cm | rain 24hr cm | rain mn cm | humidity % | barometer mb |
| 20260508090043 | 4 | 308 | 8.0 | 11.3 | 0.00 | 0.08 | 0.00 | 80 | 1005.3 |
| 20260508084526 | 3 | 322 | 6.4 | 9.7 | 0.00 | 0.08 | 0.00 | 83 | 1005.3 |
| 20260508083026 | 0 | 77 | 0.0 | 3.2 | 0.00 | 0.08 | 0.00 | 90 | 1005.2 |
| 20260508081532 | 0 | 77 | 1.6 | 3.2 | 0.00 | 0.08 | 0.00 | 89 | 1005.3 |
| 20260508080020 | 0 | 77 | 1.6 | 4.8 | 0.00 | 0.08 | 0.00 | 88 | 1005.2 |
| 20260508074527 | 0 | 96 | 0.0 | 3.2 | 0.00 | 0.08 | 0.00 | 88 | 1005.1 |
| 20260508073028 | 0 | 96 | 1.6 | 1.6 | 0.00 | 0.08 | 0.00 | 88 | 1005.1 |
| 20260508071528 | 0 | 96 | 1.6 | 1.6 | 0.00 | 0.08 | 0.00 | 88 | 1005.2 |
| 20260508070026 | 0 | 96 | 0.0 | 1.6 | 0.00 | 0.08 | 0.00 | 88 | 1005.3 |
| 20260508064516 | 0 | 96 | 1.6 | 1.6 | 0.00 | 0.08 | 0.00 | 88 | 1005.4 |
| 20260508063010 | 0 | 96 | 0.0 | 3.2 | 0.00 | 0.10 | 0.00 | 86 | 1005.3 |
| 20260508061511 | 0 | 96 | 1.6 | 3.2 | 0.00 | 0.13 | 0.00 | 88 | 1005.4 |
| 20260508060016 | 0 | 96 | 1.6 | 3.2 | 0.00 | 0.20 | 0.00 | 88 | 1005.6 |
| 20260508054518 | 0 | 96 | 1.6 | 3.2 | 0.00 | 0.20 | 0.00 | 87 | 1005.7 |
| 20260508053020 | 0 | 96 | 1.6 | 3.2 | 0.00 | 0.20 | 0.00 | 87 | 1005.8 |
| 20260508051508 | 0 | 96 | 1.6 | 3.2 | 0.00 | 0.28 | 0.00 | 87 | 1005.8 |
| 20260508050013 | 0 | 96 | 1.6 | 3.2 | 0.00 | 0.30 | 0.00 | 87 | 1006.1 |
| 20260508044520 | 0 | 96 | 1.6 | 3.2 | 0.00 | 0.33 | 0.00 | 86 | 1006.2 |
| 20260508043020 | 1 | 96 | 0.0 | 3.2 | 0.00 | 0.36 | 0.00 | 85 | 1006.3 |
| 20260508041522 | 1 | 96 | 1.6 | 3.2 | 0.00 | 0.38 | 0.00 | 85 | 1006.4 |
| 20260508040010 | 1 | 96 | 3.2 | 3.2 | 0.00 | 0.43 | 0.00 | 84 | 1006.3 |
| 20260508034520 | 1 | 318 | 0.0 | 1.6 | 0.00 | 0.53 | 0.46 | 83 | 1006.2 |
| 20260508033022 | 1 | 318 | 1.6 | 1.6 | 0.00 | 0.71 | 0.46 | 82 | 1006.1 |
| 20260508031521 | 5 | 293 | 6.4 | 8.0 | 0.00 | 0.81 | 0.46 | 72 | 1006.0 |
| 20260508030021 | 2 | 302 | 0.0 | 1.6 | 0.00 | 0.84 | 0.46 | 80 | 1006.1 |
| 20260508024532 | 6 | 302 | 3.2 | 6.4 | 0.00 | 0.89 | 0.46 | 66 | 1006.0 |
| 20260508023021 | 6 | 302 | 3.2 | 4.8 | 0.00 | 1.02 | 0.46 | 66 | 1006.1 |
| 20260508021524 | 6 | 302 | 4.8 | 8.0 | 0.00 | 1.17 | 0.46 | 59 | 1006.1 |
| 20260508020026 | 6 | 305 | 4.8 | 8.0 | 0.00 | 1.32 | 0.46 | 59 | 1006.2 |
| 20260508014526 | 7 | 312 | 8.0 | 16.1 | 0.00 | 1.47 | 0.46 | 58 | 1006.4 |
| 20260508013016 | 7 | 311 | 12.9 | 19.3 | 0.00 | 1.55 | 0.46 | 57 | 1006.4 |
| 20260508011518 | 7 | 312 | 12.9 | 17.7 | 0.00 | 1.57 | 0.46 | 55 | 1006.5 |
| 20260508010026 | 7 | 324 | 11.3 | 12.9 | 0.00 | 1.57 | 0.46 | 56 | 1006.4 |
| 20260508004539 | 7 | 321 | 11.3 | 14.5 | 0.00 | 1.63 | 0.46 | 55 | 1006.2 |
| 20260508003010 | 7 | 314 | 8.0 | 11.3 | 0.00 | 1.63 | 0.46 | 57 | 1006.1 |
| 20260508001529 | 8 | 326 | 6.4 | 11.3 | 0.00 | 1.63 | 0.46 | 53 | 1006.0 |
| 20260508000023 | 8 | 335 | 9.7 | 16.1 | 0.00 | 1.63 | 0.46 | 54 | 1005.7 |
| 20260507234526 | 8 | 325 | 14.5 | 20.9 | 0.00 | 1.63 | 0.46 | 53 | 1005.7 |
| 20260507233024 | 8 | 339 | 14.5 | 33.8 | 0.00 | 1.65 | 0.46 | 52 | 1005.6 |
| 20260507231515 | 9 | 338 | 22.5 | 32.2 | 0.00 | 1.68 | 0.46 | 49 | 1005.5 |
| 20260507230017 | 9 | 340 | 17.7 | 32.2 | 0.00 | 1.70 | 0.46 | 49 | 1005.3 |
| 20260507224523 | 9 | 319 | 20.9 | 27.4 | 0.00 | 1.73 | 0.46 | 52 | 1005.4 |
| 20260507223026 | 10 | 330 | 22.5 | 27.4 | 0.00 | 1.73 | 0.46 | 50 | 1005.1 |
| 20260507221530 | 10 | 325 | 16.1 | 22.5 | 0.00 | 1.73 | 0.46 | 53 | 1005.0 |
| 20260507220017 | 10 | 345 | 20.9 | 29.0 | 0.00 | 1.73 | 0.46 | 55 | 1004.7 |
| 20260507214521 | 11 | 330 | 22.5 | 27.4 | 0.00 | 1.75 | 0.46 | 56 | 1004.7 |
| 20260507213031 | 11 | 335 | 16.1 | 29.0 | 0.00 | 1.78 | 0.46 | 57 | 1004.3 |
| 20260507211526 | 11 | 354 | 17.7 | 25.7 | 0.00 | 1.83 | 0.46 | 59 | 1004.2 |
| 20260507210027 | 11 | 328 | 12.9 | 19.3 | 0.00 | 1.96 | 0.46 | 62 | 1003.8 |
| 20260507204519 | 11 | 335 | 8.0 | 11.3 | 0.00 | 2.13 | 0.46 | 69 | 1003.8 |
| 20260507203038 | 11 | 304 | 12.9 | 16.1 | 0.00 | 2.24 | 0.46 | 62 | 1003.6 |
| 20260507201526 | 11 | 329 | 6.4 | 9.7 | 0.00 | 2.51 | 0.46 | 70 | 1003.7 |
| 20260507200028 | 10 | 341 | 6.4 | 16.1 | 0.00 | 2.92 | 0.46 | 73 | 1003.7 |
| 20260507194526 | 10 | 314 | 9.7 | 14.5 | 0.05 | 3.02 | 0.46 | 75 | 1003.9 |
| 20260507193027 | 10 | 330 | 8.0 | 11.3 | 0.08 | 3.10 | 0.46 | 76 | 1004.0 |
| 20260507191524 | 9 | 342 | 0.0 | 9.7 | 0.08 | 3.17 | 0.46 | 80 | 1003.9 |
| 20260507190028 | 8 | 308 | 16.1 | 25.7 | 0.08 | 3.25 | 0.46 | 77 | 1004.3 |
| 20260507184527 | 9 | 291 | 16.1 | 22.5 | 0.03 | 3.28 | 0.41 | 71 | 1004.2 |
| 20260507183022 | 11 | 273 | 14.5 | 17.7 | 0.00 | 3.30 | 0.38 | 61 | 1003.7 |
| 20260507181507 | 12 | 326 | 11.3 | 14.5 | 0.00 | 3.30 | 0.38 | 57 | 1003.5 |
| 20260507180011 | 12 | 338 | 11.3 | 16.1 | 0.00 | 3.30 | 0.38 | 52 | 1003.4 |
| 20260507174522 | 11 | 294 | 4.8 | 17.7 | 0.00 | 3.30 | 0.38 | 57 | 1003.5 |
| 20260507173044 | 12 | 275 | 4.8 | 14.5 | 0.00 | 3.30 | 0.38 | 53 | 1003.5 |
| 20260507171526 | 13 | 285 | 3.2 | 9.7 | 0.00 | 3.33 | 0.38 | 53 | 1003.4 |
| 20260507170007 | 13 | 275 | 3.2 | 8.0 | 0.00 | 3.33 | 0.38 | 57 | 1003.7 |
| 20260507164508 | 12 | 271 | 4.8 | 8.0 | 0.00 | 3.35 | 0.38 | 57 | 1003.9 |
| 20260507163019 | 12 | 281 | 4.8 | 8.0 | 0.00 | 3.35 | 0.38 | 57 | 1004.1 |
| 20260507161520 | 11 | 285 | 1.6 | 4.8 | 0.00 | 3.35 | 0.38 | 58 | 1004.2 |
| 20260507160026 | 11 | 285 | 3.2 | 6.4 | 0.00 | 3.35 | 0.38 | 60 | 1004.4 |
| 20260507154510 | 11 | 285 | 3.2 | 4.8 | 0.00 | 3.35 | 0.38 | 60 | 1004.5 |
| 20260507153014 | 11 | 285 | 4.8 | 4.8 | 0.00 | 3.35 | 0.38 | 62 | 1004.7 |
| 20260507151518 | 10 | 274 | 3.2 | 6.4 | 0.00 | 3.35 | 0.38 | 65 | 1005.0 |
| 20260507150034 | 10 | 280 | 3.2 | 6.4 | 0.00 | 3.35 | 0.38 | 67 | 1005.3 |
| 20260507144526 | 9 | 281 | 4.8 | 6.4 | 0.00 | 3.35 | 0.38 | 72 | 1005.4 |
| 20260507143012 | 8 | 278 | 4.8 | 6.4 | 0.00 | 3.35 | 0.38 | 74 | 1005.4 |
| 20260507141517 | 8 | 280 | 4.8 | 6.4 | 0.00 | 3.35 | 0.38 | 76 | 1005.6 |
| 20260507140020 | 8 | 275 | 3.2 | 6.4 | 0.00 | 3.35 | 0.38 | 77 | 1005.5 |
| 20260507134524 | 7 | 279 | 4.8 | 6.4 | 0.00 | 3.35 | 0.38 | 80 | 1005.6 |
| 20260507133009 | 7 | 277 | 4.8 | 6.4 | 0.00 | 3.35 | 0.38 | 78 | 1005.7 |
| 20260507131516 | 7 | 290 | 1.6 | 3.2 | 0.00 | 3.35 | 0.38 | 81 | 1005.7 |
| 20260507130018 | 7 | 290 | 1.6 | 3.2 | 0.00 | 3.35 | 0.38 | 82 | 1006.0 |
| 20260507124528 | 7 | 290 | 1.6 | 4.8 | 0.00 | 3.35 | 0.38 | 80 | 1006.4 |
| 20260507123034 | 6 | 340 | 3.2 | 3.2 | 0.00 | 3.35 | 0.38 | 83 | 1006.5 |
| 20260507121512 | 7 | 340 | 0.0 | 0.0 | 0.00 | 3.35 | 0.38 | 86 | 1006.0 |
| 20260507120005 | 6 | 340 | 0.0 | 3.2 | 0.00 | 3.35 | 0.38 | 86 | 1006.5 |
| 20260507114504 | 6 | 340 | 0.0 | 0.0 | 0.00 | 3.35 | 0.38 | 91 | 1006.0 |
| 20260507113011 | 6 | 340 | 0.0 | 3.2 | 0.00 | 3.35 | 0.38 | 90 | 1006.2 |
| 20260507111510 | 6 | 339 | 1.6 | 3.2 | 0.00 | 3.35 | 0.38 | 88 | 1006.3 |
| 20260507110014 | 5 | 339 | 0.0 | 3.2 | 0.00 | 3.35 | 0.38 | 91 | 1006.1 |
| 20260507104503 | 5 | 339 | 0.0 | 0.0 | 0.00 | 3.35 | 0.38 | 92 | 1005.9 |
| 20260507103004 | 6 | 339 | 3.2 | 6.4 | 0.00 | 3.35 | 0.38 | 87 | 1005.9 |
| 20260507101508 | 5 | 281 | 0.0 | 1.6 | 0.00 | 3.35 | 0.38 | 91 | 1005.7 |
| 20260507100012 | 5 | 281 | 0.0 | 4.8 | 0.00 | 3.35 | 0.38 | 90 | 1005.9 |
| 20260507094516 | 5 | 294 | 1.6 | 4.8 | 0.00 | 3.35 | 0.38 | 92 | 1005.9 |
| 20260507093004 | 5 | 300 | 1.6 | 3.2 | 0.00 | 3.35 | 0.38 | 93 | 1005.3 |
| 20260507091506 | 5 | 300 | 0.0 | 3.2 | 0.00 | 3.35 | 0.38 | 92 | 1004.8 |